Wind_Speed
23 23 25 23 23 24 26 25 25 25 26 24 23 19 17 16 13 9 12 7 7 5 7 6 6 5 5 6 4 3 6 9 14 9 2 6 8 3 4 3 6 5 2 5 22
25 24 25 25 24 24 26 26 26 25 25 25 24 20 18 18 12 16 13 16 8 12 6 9 6 8 6 5 5 6 10 12 4 3 0 6 8 7 5 7 7 7 4 16 22
27 26 25 25 24 25 27 26 27 26 24 25 24 21 19 16 7 10 22 23 16 11 12 8 7 3 11 5 7 12 14 5 1 2 2 1 7 4 7 8 9 10 12 18 19
30 29 27 25 26 25 26 27 27 27 25 26 24 22 20 17 9 7 21 24 23 14 10 12 9 7 3 11 14 11 14 5 4 1 2 2 2 6 12 4 6 5 16 20 19
30 31 29 26 26 26 26 28 27 25 25 26 25 24 21 10 14 3 4 23 24 18 18 14 15 10 10 10 15 16 10 6 6 9 7 1 3 6 9 11 1 4 15 17 18
31 31 29 27 25 28 27 29 30 27 26 26 26 26 22 19 13 14 4 18 22 21 19 19 11 13 10 7 15 12 13 10 10 7 4 6 3 3 2 5 6 10 13 14 18
32 30 29 26 23 27 28 28 26 26 24 26 26 28 18 22 15 16 10 18 25 24 17 18 10 13 5 8 9 12 19 13 11 15 10 5 16 8 2 1 8 10 12 13 17
32 31 29 24 22 25 28 28 23 20 21 21 27 25 6 25 12 16 16 13 20 18 18 17 9 6 1 2 6 10 11 18 17 11 8 14 21 13 7 5 9 11 11 13 16
32 30 29 24 22 24 28 27 24 18 17 14 14 14 16 17 26 19 21 21 18 16 10 9 12 4 2 5 9 14 12 21 18 12 13 17 17 19 3 3 7 10 11 12 13
32 30 28 23 21 22 25 25 18 14 13 11 6 5 4 25 23 27 23 21 19 18 8 8 7 10 6 11 14 16 19 7 17 13 7 16 19 16 12 10 9 9 11 12 13
32 30 28 24 22 23 24 12 5 6 11 9 10 6 2 16 27 25 30 26 16 20 12 10 11 21 21 16 13 11 15 20 11 2 10 17 18 21 23 23 19 13 12 13 14
31 31 29 27 24 25 24 9 16 3 9 19 19 16 12 15 12 23 32 15 11 13 22 8 20 22 17 20 18 7 17 19 5 6 6 14 21 19 23 24 22 21 17 15 13
32 32 30 28 25 22 26 24 13 6 5 13 26 25 15 14 15 24 29 11 20 21 27 24 16 21 19 18 21 20 17 16 8 7 5 7 20 21 23 24 23 21 22 18 15
34 33 31 28 18 20 21 23 7 6 5 9 11 13 7 14 8 33 37 17 12 25 26 22 19 27 20 21 19 21 9 14 9 8 5 6 8 17 18 22 22 23 22 22 19
37 35 32 32 16 20 14 15 15 4 8 8 15 12 18 11 12 19 35 5 13 21 14 13 21 22 24 23 19 4 9 6 3 2 1 7 5 8 13 18 19 18 23 24 20
39 36 32 13 13 23 14 20 13 7 10 8 9 17 22 26 11 14 9 4 9 20 18 10 4 16 18 15 15 16 10 11 6 1 7 15 10 10 13 19 15 15 17 21 21
38 35 30 17 10 15 22 14 8 8 3 5 9 21 21 16 22 16 7 16 11 12 13 9 11 3 8 19 16 13 12 3 6 5 6 2 11 16 16 15 12 13 14 15 18
37 32 21 15 17 19 18 5 14 10 16 1 4 24 24 14 22 29 22 17 11 20 18 14 6 15 10 17 10 15 18 7 8 10 8 3 10 4 8 13 12 16 13 11 10
35 22 17 15 17 21 7 7 14 7 3 6 6 19 11 17 8 22 22 23 15 19 12 15 6 4 12 9 16 4 9 2 2 1 2 7 9 8 12 11 14 13 11 14 13
25 13 13 18 19 16 7 15 6 6 2 4 17 18 17 18 14 19 19 21 20 24 13 15 7 1 2 6 1 14 10 2 2 5 7 8 11 7 6 8 8 5 9 8 8
21 7 16 18 15 6 10 11 17 11 5 3 10 7 14 12 15 24 24 16 27 27 15 19 9 2 8 8 9 8 7 6 3 6 4 4 5 4 6 4 1 3 3 4 5
5 5 24 27 7 6 11 15 12 11 8 7 5 11 11 29 19 16 21 18 28 25 24 7 7 7 3 2 10 12 11 14 6 7 5 5 8 5 7 5 6 4 5 4 4
5 3 16 18 8 11 12 21 13 9 8 7 5 18 13 16 14 17 19 11 25 23 21 10 7 7 4 2 0 9 17 17 10 2 13 6 8 5 7 3 3 2 3 6 4
6 5 3 6 7 16 17 12 15 11 11 6 7 22 16 17 10 16 16 14 23 22 13 9 10 14 16 19 10 9 16 18 17 6 13 17 17 9 7 5 4 4 4 10 11
1 4 4 11 13 14 17 11 12 7 10 10 5 17 13 7 7 10 14 11 13 13 9 6 5 7 2 12 18 18 22 20 22 29 14 24 24 16 14 13 13 11 12 11 11
4 4 2 0 11 19 13 14 15 14 10 6 14 15 22 17 15 27 26 20 18 8 13 4 4 7 2 10 14 16 20 23 27 29 22 26 24 10 12 9 7 9 11 14 12
2 1 3 6 10 12 16 13 15 7 9 13 17 17 23 15 6 16 6 7 18 22 17 13 7 3 5 10 8 2 24 26 25 24 28 20 31 9 8 8 10 11 12 11 10
Wind_Direction
229 227 228 233 232 233 231 230 227 224 224 220 211 206 207 203 205 194 209 242 229 183 162 162 209 243 301 252 246 279 232 226 229 222 231 147 186 180 21 141 204 172 335 89 151
231 230 228 227 229 230 231 229 228 223 220 216 210 204 204 203 194 223 217 223 235 217 185 173 184 224 211 243 211 229 220 229 355 352 356 170 220 167 199 191 202 183 124 131 153
226 230 229 226 235 225 228 225 226 219 213 212 208 204 200 195 232 238 231 222 232 215 221 210 174 233 234 200 227 218 230 217 97 277 350 166 215 195 228 219 227 206 171 156 165
223 225 226 226 229 226 223 220 220 220 215 213 208 199 192 182 225 218 221 220 217 215 213 193 182 152 270 224 216 242 233 228 147 120 131 134 9 230 234 215 6 230 167 167 178
219 220 222 221 224 221 220 215 215 214 215 217 209 198 177 211 217 101 206 212 202 204 209 201 189 186 194 221 227 221 189 205 162 120 55 28 247 270 266 249 271 163 161 177 185
215 216 217 218 220 217 216 213 217 221 215 210 208 198 197 225 217 219 165 178 194 201 207 210 211 202 203 227 221 213 219 191 188 181 87 346 330 283 85 244 213 176 181 185 188
213 214 215 216 217 214 211 208 213 217 216 215 212 200 217 216 193 197 180 187 190 201 207 215 214 202 214 205 231 247 213 208 225 217 207 265 285 236 355 246 229 211 194 190 194
209 212 212 212 212 208 207 205 208 203 207 210 213 202 240 201 181 188 182 168 184 204 220 209 223 194 277 118 186 208 237 222 215 205 201 198 237 244 360 272 254 229 219 197 199
205 208 210 208 206 203 203 199 200 202 202 190 188 207 233 181 198 185 188 175 176 181 193 197 208 166 179 194 186 209 221 223 225 207 215 210 240 240 217 266 271 270 227 213 206
204 206 206 205 201 194 195 190 193 192 194 194 225 235 218 200 186 188 184 174 163 165 161 196 210 194 179 201 201 200 214 221 222 187 231 218 234 248 231 243 274 274 260 232 222
202 204 203 199 197 190 179 151 164 197 202 194 190 223 148 204 170 187 180 175 170 170 184 194 199 207 197 204 226 210 210 214 216 211 214 236 249 250 249 252 252 248 257 252 233
199 197 197 192 190 189 176 190 191 128 209 221 240 220 198 172 181 179 172 171 180 180 186 175 218 205 207 192 210 208 218 212 242 96 220 240 246 244 250 250 247 248 248 249 239
193 190 188 184 180 177 188 196 193 201 225 206 216 224 199 194 185 177 170 170 183 181 192 204 208 211 210 199 205 211 223 216 195 167 229 275 264 256 253 257 254 247 248 244 253
187 182 180 174 164 180 199 201 182 199 249 226 200 222 196 198 233 179 178 178 196 189 193 215 211 194 205 207 204 212 207 231 132 166 229 183 283 257 249 245 240 238 237 234 231
179 177 176 174 172 184 180 180 191 138 221 196 185 178 175 203 138 194 173 144 183 173 168 186 197 194 197 203 199 212 161 172 130 207 325 200 252 271 237 246 242 240 226 223 222
172 171 165 155 161 176 160 161 156 199 231 168 160 176 180 189 190 148 177 134 187 167 193 163 253 183 202 190 181 132 102 70 55 50 248 231 216 246 246 248 248 251 245 222 217
169 169 164 155 148 145 148 145 192 213 106 221 200 169 195 177 181 186 179 167 171 156 163 150 166 127 213 182 144 142 151 125 204 217 237 81 216 249 293 267 291 277 252 241 223
164 165 161 156 151 142 153 142 211 223 222 224 252 184 182 171 190 185 178 174 177 176 159 166 175 175 186 175 176 174 185 194 217 222 254 144 239 243 245 266 273 255 254 271 237
158 154 157 157 154 162 157 203 209 196 227 208 245 182 174 172 170 178 181 178 171 182 163 170 130 93 169 154 158 180 205 216 113 132 269 212 241 249 246 263 263 249 253 246 241
146 143 153 160 151 164 179 215 203 218 155 342 211 194 174 172 172 181 177 184 174 189 183 177 121 11 131 88 116 188 142 113 237 207 241 236 237 245 260 257 301 289 260 261 273
132 139 163 161 158 173 201 220 223 209 132 244 243 227 189 170 164 185 188 178 179 190 171 167 134 177 152 201 164 153 183 207 199 242 259 272 241 145 188 30 311 352 7 17 346
123 156 166 155 165 195 217 206 218 222 182 227 306 243 211 185 167 185 179 184 182 179 171 138 129 145 161 339 199 211 189 197 205 196 244 323 251 168 152 103 103 62 76 39 20
116 128 166 175 186 199 221 215 223 210 204 194 268 233 197 175 178 198 181 179 168 170 165 164 142 120 115 27 19 198 202 203 204 33 217 215 254 230 184 232 160 130 22 0 37
146 135 148 210 240 209 202 215 209 210 222 171 269 300 190 191 167 176 150 178 170 180 137 145 167 182 191 188 130 184 193 202 208 206 221 224 240 164 152 158 196 247 323 326 329
155 146 156 189 212 213 191 207 202 205 203 166 256 232 214 160 162 160 131 136 168 176 149 160 141 189 200 180 169 184 185 185 202 224 206 239 241 238 267 281 293 297 316 314 301
135 150 153 174 201 210 211 210 198 219 178 184 228 269 203 175 186 172 154 162 170 178 171 226 125 122 57 155 181 190 192 199 213 228 232 252 266 272 267 262 260 274 283 285 287
95 158 199 169 190 199 216 196 201 181 216 226 212 249 211 182 206 157 118 124 172 166 169 174 138 124 142 153 133 241 210 201 215 218 220 233 240 269 278 278 271 276 276 270 292
Height
751 755 758 760 761 764 768 773 776 780 785 790 794 797 800 802 805 808 809 812 811 811 810 813 817 819 821 817 814 810 817 815 809 807 803 802 807 807 809 810 811 813 812 816 827
746 749 752 755 758 760 764 768 773 777 782 787 792 795 799 802 805 804 804 807 812 813 811 813 817 819 818 816 812 812 814 807 800 798 801 803 805 808 812 812 814 816 820 822 829
742 744 747 750 753 756 760 764 770 774 779 785 790 794 798 802 805 796 798 803 810 811 813 814 817 820 818 815 811 807 809 801 807 806 804 804 807 805 811 812 806 813 818 824 829
738 741 744 747 749 753 756 761 766 771 776 782 788 793 796 802 801 790 792 797 807 812 813 812 813 824 825 816 806 812 803 804 812 812 808 808 805 809 808 804 808 803 812 821 827
734 737 741 744 745 749 753 757 762 768 773 779 786 791 796 796 789 789 790 795 804 810 810 808 810 817 822 812 804 806 806 810 811 809 812 812 810 811 805 800 807 807 813 818 825
728 732 736 739 741 744 748 754 759 765 771 777 784 788 790 788 787 790 791 796 802 808 807 807 805 808 811 809 806 802 804 809 811 808 814 815 811 814 802 798 807 809 812 817 822
722 726 731 734 737 741 745 750 756 762 768 774 781 785 783 774 783 789 791 793 800 806 807 807 807 809 803 809 805 805 808 806 809 804 811 819 818 815 800 805 806 809 809 813 820
716 721 726 730 733 736 742 749 755 761 767 773 779 785 773 778 783 787 791 795 801 806 809 811 809 811 811 807 808 813 812 814 805 806 806 816 823 802 800 804 805 803 805 809 815
711 716 721 726 729 734 740 748 755 761 767 773 779 779 774 770 778 783 788 792 800 806 810 809 812 812 814 814 814 809 813 813 807 804 806 810 813 800 803 805 805 800 801 803 809
705 711 717 721 725 731 739 748 755 761 766 773 776 781 773 762 774 778 788 792 797 803 810 813 809 807 815 809 812 808 814 811 811 806 810 808 808 800 798 801 804 801 798 799 803
700 706 712 717 723 730 740 747 755 758 758 750 752 758 761 762 772 776 783 790 794 795 805 810 810 797 799 805 800 801 806 810 802 802 807 808 806 804 795 794 796 798 797 797 797
696 702 709 715 722 729 735 736 740 745 752 754 756 757 762 766 768 771 778 784 786 791 795 808 796 790 791 797 804 808 809 806 802 807 811 804 802 795 791 790 788 790 789 791 793
691 699 707 714 722 728 731 735 741 746 747 741 748 751 757 764 759 762 769 772 777 781 782 783 784 790 790 794 803 801 807 797 802 812 816 814 804 795 787 785 782 780 782 784 788
689 697 705 713 724 725 731 738 744 750 750 734 743 740 757 754 757 756 758 767 770 769 776 784 777 781 787 793 794 803 798 797 810 814 824 814 817 786 777 775 772 772 774 775 782
687 695 703 711 715 721 730 738 746 752 744 723 729 733 739 747 747 752 753 763 759 754 769 777 770 779 785 789 793 801 799 804 812 825 834 826 835 783 770 771 762 758 761 762 770
686 694 703 711 715 722 728 737 747 753 722 722 723 722 733 741 743 749 748 757 756 757 763 771 771 771 779 783 789 806 816 825 840 840 830 808 817 778 769 761 757 754 753 753 758
685 693 702 709 714 721 728 736 750 732 736 728 716 715 723 723 736 738 738 742 748 754 768 773 776 777 775 784 798 799 809 829 835 831 809 794 801 782 759 753 749 749 750 750 751
685 695 703 710 715 721 727 740 738 717 720 729 720 710 708 720 724 734 737 735 743 741 749 768 788 777 773 776 797 797 790 795 813 804 786 806 791 767 754 747 748 747 747 750 747
687 697 704 710 714 720 724 728 715 711 711 722 719 705 705 715 721 725 727 727 726 718 738 751 775 784 773 774 782 806 796 785 804 831 802 777 767 759 750 752 748 746 748 747 748
686 697 704 708 713 719 726 716 720 714 726 723 709 697 697 709 714 714 720 714 714 710 712 730 771 787 787 782 790 783 791 811 805 807 797 760 763 758 750 745 740 742 745 746 748
686 695 703 708 715 720 714 709 708 710 719 727 702 699 683 699 700 704 708 713 701 708 711 721 745 792 788 787 786 788 793 786 782 780 779 773 752 732 740 749 748 746 747 747 749
682 693 699 704 714 713 706 698 700 701 710 726 725 701 685 676 683 696 696 690 692 701 715 721 738 773 782 789 779 772 779 778 783 789 785 783 765 742 742 745 747 747 749 749 749
684 694 699 701 698 705 695 696 697 701 706 712 714 694 675 675 682 687 687 684 693 703 707 724 747 777 792 792 789 777 771 769 766 783 780 785 752 731 735 746 744 746 748 744 746
675 687 698 700 691 688 695 691 695 695 699 707 711 706 675 673 670 681 689 691 695 704 710 717 733 732 737 735 762 774 770 772 770 783 766 763 741 741 740 741 742 741 740 743 744
666 674 681 685 689 682 682 682 688 693 695 701 704 701 672 688 683 682 692 702 706 712 715 714 734 728 722 723 743 753 760 768 770 749 761 736 736 737 735 733 732 733 737 743 742
668 673 683 679 681 684 678 679 684 688 694 696 699 687 665 659 651 659 665 683 697 719 716 712 733 733 748 735 738 749 754 759 757 744 754 737 735 733 732 733 741 741 741 739 739
670 672 667 673 676 680 671 670 675 683 684 677 683 688 663 657 653 664 677 679 681 687 705 716 726 738 751 745 751 760 740 742 741 745 738 748 717 733 736 738 738 736 735 735 736